TITAN 3C TRANSTAGE DEB

Satellite information

Favourite Embed

Satellite Type and Status

DEBRISIN ORBIT

Key statistics

Satellite TITAN 3C TRANSTAGE DEB at a glance.

Uptime

21908

Days in orbit

Revolutions

≈ 9.6

Per day

Orbit

MEO

Medium Earth Orbit

Inclination

26.4

Latest

Satellite identification and parameters

Extended collection of information and parameters for TITAN 3C TRANSTAGE DEB.

Object identification

Identified? True

Debris? True

Object name: TITAN 3C TRANSTAGE DEB

International designator: 1965-108BA

Object number (NORAD): 26782

Object ID (CCSDS): 26782

Country: UNITED STATES OF AMERICA (US)

Current information (Y/N): Y

RCS size: MEDIUM

Orbital parameters

Period: 149.911 minutes

Inclination: 26.4184 deg

SMA: 9347.956 km

Apoapsis: 5660.714 km

Periapsis: 278.928 km

RAAN: 120.4603 deg

Eccentricy: 0.287859

Argument of periapsis: 20.8129 deg

Mean anomaly: 348.8941 deg

Mean motion: 9.60567252 rev/day

Mean motion (dot): 0.00062907 rev/day2

B* drag term: 0.0026924247 1/REarth

Two-line elements (TLE)

Creation date: Dec. 12, 2025, 3:16 a.m.

Reference frame: TEME

Reference center: EARTH

Epoch: Dec. 11, 2025, 4:04 p.m. UTC

TLE line 0: 0 TITAN 3C TRANSTAGE DEB

TLE line 1: 1 26782U 65108BA 25345.66982598 .00062907 -73942-6 26924-2 0 9998

TLE line 2: 2 26782 26.4184 120.4603 2878590 20.8129 348.8941 9.60567252394914

Live tracking on map

Real-time ground track for satellite TITAN 3C TRANSTAGE DEB.

In-orbit conjunctions

A list of the most updated potential collisions computed for object TITAN 3C TRANSTAGE DEB.

Target Orbit TCA Probability of collision Miss distance Type
DELTA 1 R/B HEO 2024-11-15 09:05:26 TBA 2588.0 (m) ROCKET BODY

Associated space launch

The OV2 (Orbiting Vehicle 2) series satellites were originally built for project ARENTS (Advanced Research Environmental Test Satellite), which was intended to obtain supporting data for the Vela program. After the cancellation of the ARENTS program, the already built hardware was reused for OV2, a low-cost series of experimental satellites, which were to be launched for free on Titan-3C test flights to very different orbits.

TITAN 3C TRANSTAGE DEB was lifted into orbit during the mission ‘Titan IIIC | OV2-3’, on board a Titan IIIC space rocket.

The launch took place on Dec. 21, 1965, 2 p.m. from Space Launch Complex 41.

For more information about the launch, click the button.

Launch to space Titan IIIC | OV2-3
Titan IIIC | OV2-3

Agency: N/A

Status: Launch Successful

Launch date: Dec. 21, 1965, 2 p.m. UTC

Rocket: Titan IIIC

Launch pad: Space Launch Complex 41

Location: Cape Canaveral SFS, FL, USA

...

Latest news about this satellite

There are no fresh news available about this satellite. Check back as we update our databases every day.


Newsletter sign-up

Weekly statistics, charts and insights to help you stay on top of the space industry.